www.pogodaiklimat.ru

Погода и климат >> Архив погоды >> Таиланд >> Аюттхая


ПОГОДА в Аюттхая

  • Прогноз погоды в Аюттхая
  • Монитор погоды в Аюттхая

АРХИВ ПОГОДЫ в Аюттхая

Время (UTC), дата Ветер
(напр.,м/с)
 
Видим.   Явления Облачность Т
(С)
Тd
(С)
f
(%)
Тe
(С)
Тes
(С)
Комфортность P
(гПа)
Po
(гПа)
Тmin
(С)
Tmax
(С)
R
(мм)
R24
(мм)
S
(см)
21 16.05 Ю 5 7000 м дымка 8/3 600 м
[Sc Ac lent Cs]
+27.3 +25.7 91 +40 +40 очень
душно
1007.2 1006.1
00 17.05 Ю 3 7000 м дымка 8/3 600 м
[Sc Ac lent Cs]
+27.5 +25.4 88 +40 +41 очень
душно
1008.0 1006.9 +26.3
03 17.05 ЮЗ 3 10 км 4/0
[Cs]
+32.0 +23.3 60 +43 +54 опасность
перегрева
1008.8 1007.7
06 17.05 СЗ 3 10 км 4/1 600 м
[Cu hum Cs]
+35.5 +25.0 55 +49 +64 опасность
перегрева
1007.0 1005.9
09 17.05 ЮЗ 6 10 км 4/1 600 м
[Cu hum Ac lent Cs]
+35.7 +24.1 51 +47 +50 опасность
перегрева
1004.5 1003.4
12 17.05 ЮЗ 3 8000 м дымка 6/0
[Cs]
+32.0 +24.9 66 +45 +45 опасность
перегрева
1004.8 1003.7 +36.7
15 17.05 ЮЗ 5 6000 м дымка 4/0
[Cs]
+30.9 +27.0 80 +49 +49 опасность
перегрева
1007.1 1006.0
18 17.05 Ю 3 6000 м дымка 4/0
[Cs]
+29.5 +26.0 81 +44 +44 опасность
перегрева
1007.0 1005.9
21 17.05 Ю 2 6000 м дымка 3/0
[Cs]
+28.4 +26.1 87 +43 +43 опасность
перегрева
1005.4 1004.3
00 18.05 Ю 2 8000 м дымка 6/0
[Cs]
+27.5 +25.7 90 +41 +42 опасность
перегрева
1006.1 1005.0 +26.2
03 18.05 Ю 4 8000 м мгла 3/0
[Ci fib]
+32.5 +23.4 59 +43 +53 опасность
перегрева
1009.0 1007.9
06 18.05 штиль 0 8000 м мгла 3/1 600 м
[Cu hum Ci fib]
+35.6 +22.6 47 +45 +70 опасность
перегрева
1006.8 1005.7
09 18.05 ЮЗ 3 8000 м мгла 3/1 600 м
[Cu hum Ci fib]
+36.0 +24.4 51 +48 +54 опасность
перегрева
1004.0 1003.0
12 18.05 ЮВ 2 8000 м мгла 3/0
[Ci fib]
+32.9 +24.8 63 +46 +46 опасность
перегрева
1004.4 1003.4 +37.2
15 18.05 штиль 0 8000 м дымка 3/0
[Ci fib]
+30.3 +25.5 76 +45 +45 опасность
перегрева
1007.0 1005.9
18 18.05 Ю 3 8000 м дымка 3/0
[Ci fib]
+29.2 +25.5 80 +43 +43 опасность
перегрева
1006.7 1005.6
21 18.05 штиль 0 8000 м дымка 3/0
[Ci fib]
+28.0 +25.4 86 +41 +41 опасность
перегрева
1006.3 1005.1
00 19.05 ЮВ 4 8000 м дымка 3/0
[Ci fib]
+28.0 +25.7 87 +41 +42 опасность
перегрева
1007.6 1006.5 +27.0
03 19.05 ЮЗ 4 9000 м мгла 3/1 600 м
[Cu hum Ci fib]
+33.1 +23.1 56 +44 +53 опасность
перегрева
1009.0 1008.0
06 19.05 Ю 6 10 км 3/1 600 м
[Cu med, cong Ci fib]
+36.7 +22.2 43 +45 +52 опасность
перегрева
1006.9 1005.8
09 19.05 Ю 9 10 км 3/1 600 м
[Cu med, cong Ci fib]
+37.0 +22.4 43 +46 +46 опасность
перегрева
1004.8 1003.7
12 19.05 З 2 10 км 3/1 600 м
[Cu med, cong Ci fib]
+32.6 +24.3 62 +45 +45 опасность
перегрева
1005.2 1004.1 +38.3
15 19.05 Ю 3 9000 м дымка 3/0
[Ac lent Ci fib]
+31.0 +24.3 68 +43 +43 опасность
перегрева
1007.7 1006.6
18 19.05 штиль 0 8000 м дымка 3/0
[Ac lent Ci fib]
+29.5 +24.8 76 +42 +42 опасность
перегрева
1008.0 1006.9
21 19.05 штиль 0 8000 м дымка 3/0
[Ac lent Ci fib]
+28.7 +25.9 85 +43 +43 опасность
перегрева
1007.1 1006.0
00 20.05 ЮВ 3 8000 м дымка 3/0
[Ac lent Ci fib]
+29.2 +26.1 83 +44 +45 опасность
перегрева
1007.9 1006.8 +27.7
03 20.05 Ю 8 10 км 6/3 600 м
[Cu med, cong Ac lent Cs]
+33.5 +26.1 65 +49 +51 опасность
перегрева
1009.1 1008.0
06 20.05 Ю 6 10 км 6/3 600 м
[Cu med, cong Ac lent Cs]
+36.6 +24.6 50 +49 +54 опасность
перегрева
1008.0 1006.9
09 20.05 ЮЗ 6 10 км 6/3 600 м
[Cu med, cong Ac lent Cs]
+36.7 +24.1 49 +49 +50 опасность
перегрева
1004.5 1003.4
12 20.05 ЮЗ 10 8000 м мгла 8/4 600 м
[Sc Ac lent Cs]
+33.0 +25.1 63 +47 +47 опасность
перегрева
1004.9 1003.8 +37.5
15 20.05 В 4 6000 м дымка 8/0
[Ac lent Cs]
+30.4 +26.5 80 +47 +47 опасность
перегрева
1007.8 1006.7
18 20.05 ЮВ 3 6000 м дымка 8/0
[Cs]
+29.0 +26.5 86 +44 +44 опасность
перегрева
1007.9 1006.8
21 20.05 В 2 6000 м дымка 8/0
[Cs]
+28.4 +26.1 87 +43 +43 опасность
перегрева
1007.2 1006.1
00 21.05 штиль 0 8000 м дымка 6/0
[Cs]
+28.0 +25.9 88 +42 +44 опасность
перегрева
1008.2 1007.1 +27.0
03 21.05 Ю 4 8000 м мгла 3/1 600 м
[Cu hum Ci fib]
+33.3 +25.3 63 +48 +57 опасность
перегрева
1009.9 1008.8
06 21.05 СВ 4 8000 м мгла 3/1 600 м
[Cu hum Ci fib]
+36.8 +24.2 49 +49 +61 опасность
перегрева
1007.6 1006.5
09 21.05 ЮЗ 6 8000 м мгла 6/1 600 м
[Cu med, cong Ac lent Cs]
+35.9 +25.3 55 +50 +52 опасность
перегрева
1004.2 1003.2
12 21.05 ЮВ 4 8000 м мгла 3/1 600 м
[Sc Ac lent Cs]
+33.7 +25.3 62 +48 +48 опасность
перегрева
1005.5 1004.5 +38.3
15 21.05 Ю 2 8000 м дымка 3/0
[Cs]
+30.8 +25.9 75 +46 +46 опасность
перегрева
1007.6 1006.5
18 21.05 Ю 3 8000 м дымка 8/3 600 м
[Sc Ac lent Cs]
+29.8 +25.9 80 +45 +45 опасность
перегрева
1008.9 1007.8
21 21.05 СЗ 4 7000 м гроза без осадков 9/3 600 м
[Cb cap Ac lent Cs]
+25.0 +23.2 90 +33 +33 очень
душно
1009.2 1008.1
00 22.05 штиль 0 8000 м дымка {гроза} 5/3 600 м
[Sc Ac As Cs]
+25.5 +23.9 91 +35 +36 очень
душно
1008.2 1007.1 +23.6
03 22.05 СЗ 3 9000 м дымка 10/3 600 м
[Cu med, cong Ac As Cs]
+29.3 +24.3 75 +41 +46 опасность
перегрева
1010.1 1009.0
06 22.05 штиль 0 9000 м мгла 10/4 600 м
[Cu med, cong Ac As Cs]
+33.0 +24.0 59 +45 +53 опасность
перегрева
1008.1 1007.0
09 22.05 З 3 9000 м мгла 8/3 600 м
[Cu med, cong Ac lent Cs]
+34.2 +25.2 60 +48 +51 опасность
перегрева
1005.6 1004.6
12 22.05 З 4 7000 м гроза без осадков 10/5 600 м
[Cb cap Ac As Cs]
+27.8 +23.3 77 +38 +38 очень
душно
1007.9 1006.8 +35.2
15 22.05 штиль 0 7000 м дымка {гроза} 8/3 600 м
[Sc Ac lent Cs]
+27.0 +24.7 87 +38 +38 очень
душно
1009.2 1008.1
18 22.05 штиль 0 7000 м дымка {гроза} 9/3 600 м
[Sc Ac As Cs]
+26.8 +24.6 88 +38 +38 очень
душно
1009.5 1008.4
21 22.05 штиль 0 7000 м дымка 8/3 600 м
[Sc Ac lent Cs]
+26.3 +24.7 91 +37 +37 очень
душно
1008.3 1007.1
00 23.05 Ю 3 7000 м дымка 8/3 600 м
[Sc Ac cuf Cs]
+27.0 +25.1 89 +39 +39 очень
душно
1009.3 1008.2 +25.3
03 23.05 Ю 8 10 км 4/0
[Ac lent Cs]
+32.7 +24.8 63 +46 +48 опасность
перегрева
1009.6 1008.5
06 23.05 З 4 10 км 8/4 600 м
[Sc Ac As Cs]
+34.8 +24.9 57 +48 +54 опасность
перегрева
1007.4 1006.3
09 23.05 штиль 0 7000 м слаб. морось {гроза} 10/4 600 м
[Sc Ac As Cs]
+27.0 +24.1 84 +37 +41 очень
душно
1005.9 1004.8 0.0
12 23.05 ЮЗ 7 7000 м слаб. дождь {гроза, морось} 10/5 600 м
[Sc Ac As Cs]
+25.0 +23.8 93 +34 +34 очень
душно
1008.9 1007.8 +36.5 3
15 23.05 ЮВ 3 6000 м дымка {дождь} 10/4 600 м
[Sc Ac As Cs]
+26.4 +25.3 94 +38 +38 очень
душно
1010.4 1009.3 2
18 23.05 штиль 0 6000 м дымка {дождь} 8/1 600 м
[Sc Ac lent Cs]
+25.9 +24.6 93 +37 +37 очень
душно
1009.2 1008.1 4

 

Местоположение метеостанции Аюттхая (Таиланд): широта 14.52 долгота 100.72 высота над уровнем моря 10 м.

В архиве по умолчанию представлена погода в Аюттхая за последнюю неделю. Архивные данные за месяц целиком и за предыдущие месяцы, начиная с января 2011 года, Вы можете получить, выбрав интересующий диапазон дат из раскрывающегося списка и нажав кнопку "Ввод!".


*Определитесь, кто Вы:
робот инопланетянин человек

Внимание! Время в таблицах - всемирное. Для получения местного времени необходимо прибавить поправку, которая равна 7 ч.

Смотрите также архив погоды в соседних городах и на ближайших метеорологических станциях:

Погода в Сарабури (Таиланд) (22 км)
Погода в Лопбури (Таиланд) (33 км)
Погода в Патхумтхани (Таиланд) (48 км)
Погода в Суфанбури (Таиланд) (64 км)
Погода в Лаем-Чабанге (Таиланд) (65 км)
Погода в Пакчонг Агромете (Таиланд) (66 км)
Погода в Дон Муанг (Таиланд) (68 км)
Погода в Прачинбури (Таиланд) (87 км)
Погода в Бангкоке (Таиланд) (90 км)
Погода в Чайнат Агромете (Таиланд) (91 км)

Пояснения к столбцам:

Ветер - указаны скорость ветра в м/с - средняя за 10 мин, порывы в срок и между сроками (в фигурных скобках) и направление, откуда дует ветер: С - северный, СВ - северо-восточный, В - восточный, ЮВ - юго-восточный, Ю - южный, ЮЗ - юго-западный, З - западный, СЗ - северо-западный.
Видимость - горизонтальная дальность видимости в метрах или километрах. При видимости от 1 до 10 км при отсутствии осадков обычно наблюдается дымка, при ухудшении видимости до 1 км и менее - туман. В сухую погоду видимость может ухудшаться дымом, пылью или мглою.
Явления - указаны атмосферные явления, наблюдавшиеся в срок или в последний час перед сроком; фигурными скобками обозначены явления, наблюдавшиеся между сроками (за 1-3 часа до срока); квадратными скобками обозначены град или гололедные отложения с указанием их диаметра в мм.
Облачность - указаны через наклонную черту общая и нижняя облачность в баллах и высота нижней границы облаков в метрах; квадратными скобками обозначены формы облаков: Ci - перистые, Cs - перисто-слоистые, Cc - перисто-кучевые, Ac - высококучевые, As - высокослоистые, Sc - слоисто-кучевые, Ns - слоисто-дождевые, Cu - кучевые, Cb - кучево-дождевые. Подробнее классификацию облаков см. в Атласе облаков (PDF).
T - Температура воздуха - температура, измеренная на высоте 2 м над землей.
Td - Температура точки росы - температура, при понижении до которой содержащийся в воздухе водяной пар достигнет насыщения.
f - Относительная влажность воздуха - влажноcть воздуха, измеренная на высоте 2 м над землей.
Te - Эффективная температура - температура, которую ощущает одетый по сезону человек в тени. Характеристика душности погоды. При расчете учитывается влияние влажности воздуха и скорости ветра на теплоощущения человека.
Tes - Эффективная температура на солнце - температура, которую ощущает человек, с поправкой на солнечный нагрев. Характеристика знойности погоды. Зависит от высоты солнца над горизонтом, облачности и скорости ветра. Ночью, в пасмурную погоду, а также при ветре 12 м/с и более поправка равна нулю.
P - Атмосферное давление - приведенное к уровню моря атмосферное давление.
Po - Атмосферное давление - измеренное на уровне метеостанции атмосферное давление.
Tmin - Минимальная температура - минимум температуры воздуха на высоте 2 м над землей.
Tmax - Максимальная температура - максимум температуры воздуха на высоте 2 м над землей.
R - Количество осадков - Количество выпавших осадков за период времени, мм. При наведении курсора мыши на число - период времени, за который выпало указанное количество осадков.
R24 - Количество осадков - Количество выпавших осадков за 24 часа, мм.
S - Снежный покров - Высота снежного покрова, см. При наведении курсора мыши на число - состояние снежного покрова и степень покрытия местности в баллах.